This is the latest recevied weather packets stored in our database for station/object OM8AGG-10. If no packets are shown the sender has not sent any weather packets the latest 10 day(s).
| Time | Temp. | Humidity | Pressure | Rain* | Wind** | Luminosity | Snow |
|---|---|---|---|---|---|---|---|
| 1777895390 | 24.44° C | 20% | 1019.2 hPa | - | - | - | - |
| 1777894490 | 24.44° C | 19% | 1019.2 hPa | - | - | - | - |
| 1777893590 | 25° C | 24% | 1019.5 hPa | - | - | - | - |
| 1777892690 | 24.44° C | 21% | 1019.5 hPa | - | - | - | - |
| 1777891790 | 24.44° C | 24% | 1019.9 hPa | - | - | - | - |
| 1777890890 | 23.89° C | 23% | 1020.1 hPa | - | - | - | - |
| 1777889089 | 22.78° C | 22% | 1020.5 hPa | - | - | - | - |
| 1777888189 | 23.33° C | 25% | 1020.7 hPa | - | - | - | - |
| 1777887289 | 22.78° C | 25% | 1020.9 hPa | - | - | - | - |
| 1777886389 | 22.78° C | 27% | 1021.1 hPa | - | - | - | - |
| 1777885489 | 21.11° C | 28% | 1021.2 hPa | - | - | - | - |
| 1777884589 | 21.67° C | 29% | 1021.3 hPa | - | - | - | - |
| 1777883689 | 20.56° C | 31% | 1021.5 hPa | - | - | - | - |
| 1777882789 | 21.11° C | 34% | 1021.6 hPa | - | - | - | - |
| 1777881889 | 19.44° C | 37% | 1021.6 hPa | - | - | - | - |
| 1777880989 | 18.33° C | 40% | 1021.6 hPa | - | - | - | - |
| 1777880089 | 17.22° C | 42% | 1021.5 hPa | - | - | - | - |
| 1777879188 | 16.67° C | 44% | 1021.6 hPa | - | - | - | - |
| 1777878288 | 15.56° C | 48% | 1021.6 hPa | - | - | - | - |
| 1777877388 | 14.44° C | 52% | 1021.8 hPa | - | - | - | - |
| 1777876488 | 13.89° C | 55% | 1021.7 hPa | - | - | - | - |
| 1777875588 | 11.67° C | 62% | 1021.7 hPa | - | - | - | - |
| 1777874688 | 10.56° C | 66% | 1021.8 hPa | - | - | - | - |
| 1777873788 | 9.44° C | 70% | 1021.5 hPa | - | - | - | - |
| 1777872888 | 7.78° C | 80% | 1021.6 hPa | - | - | - | - |
* Rain since midnight (hover to see other rain measurements)
** Current wind speed in m/s (hover to see current wind gust speed)